EW6143 Weather Reports


time (UTC)temp
F
wind
direction
speed
knots
gust
knots
rain 1hr
in
rain 24hr
in
rain mn
in
humidity
%
barometer
mb
20260508033028 64 0 0.0 0.0 0.00 0.00 0.00 70 1015.7
20260508031526 64 0 0.0 0.9 0.00 0.00 0.00 69 1015.8
20260508030042 64 0 0.0 1.7 0.00 0.00 0.00 68 1015.7
20260508024533 65 0 0.0 1.7 0.00 0.00 0.00 68 1015.6
20260508023030 65 0 0.0 1.7 0.00 0.00 0.00 67 1015.6
20260508021533 65 0 0.0 1.7 0.00 0.00 0.00 66 1015.4
20260508020028 65 304 0.9 1.7 0.00 0.00 0.00 67 1015.2
20260508014529 66 304 0.0 0.9 0.00 0.00 0.00 67 1015.5
20260508013028 66 0 0.0 2.6 0.00 0.00 0.00 66 1015.3
20260508011529 66 304 0.9 3.5 0.00 0.00 0.00 66 1015.3
20260508010028 67 335 1.7 3.5 0.00 0.00 0.00 65 1015.2
20260508004531 67 342 1.7 6.1 0.00 0.00 0.00 64 1015.3
20260508003030 67 296 0.9 3.5 0.00 0.00 0.00 64 1015.1
20260508001529 67 338 1.7 5.2 0.00 0.00 0.00 64 1015.3
20260508000029 68 348 2.6 6.1 0.00 0.00 0.00 63 1015.4
20260507234536 68 267 1.7 7.8 0.00 0.00 0.00 63 1015.2
20260507233030 69 285 3.5 8.7 0.00 0.00 0.00 63 1015.1
20260507231529 69 280 2.6 8.7 0.00 0.00 0.00 62 1015.4
20260507230031 70 324 1.7 8.7 0.00 0.00 0.00 61 1015.4
20260507224528 72 213 0.9 5.2 0.00 0.00 0.00 50 1015.3
20260507223029 73 247 1.7 4.3 0.00 0.00 0.00 51 1015.4
20260507221529 73 244 3.5 7.0 0.00 0.00 0.00 49 1015.5
20260507220029 73 238 2.6 6.1 0.00 0.00 0.00 49 1015.5
20260507214527 74 218 2.6 6.1 0.00 0.00 0.00 46 1015.7
20260507213029 74 157 1.7 5.2 0.00 0.00 0.00 47 1015.8
20260507211527 73 187 3.5 7.8 0.00 0.00 0.00 45 1016.0
20260507210028 74 225 3.5 7.8 0.00 0.00 0.00 46 1016.1
20260507204530 75 194 1.7 7.0 0.00 0.00 0.00 46 1016.0
20260507203030 74 170 3.5 7.0 0.00 0.00 0.00 46 1016.2
20260507201535 75 171 2.6 7.0 0.00 0.00 0.00 47 1016.4
20260507200029 75 161 0.9 6.1 0.00 0.00 0.00 48 1016.6
20260507194532 74 13 0.9 7.0 0.00 0.00 0.00 48 1016.8
20260507193032 76 196 3.5 8.7 0.00 0.00 0.00 46 1017.0
20260507191530 74 172 1.7 8.7 0.00 0.00 0.00 47 1017.2
20260507190030 73 139 4.3 10.4 0.00 0.00 0.00 51 1017.3
20260507184529 72 194 5.2 8.7 0.00 0.00 0.00 52 1017.5
20260507183037 71 191 5.2 10.4 0.00 0.00 0.00 51 1017.7
20260507181530 71 222 3.5 7.8 0.00 0.00 0.00 53 1017.9
20260507180027 70 165 3.5 10.4 0.00 0.00 0.00 53 1018.2
20260507174534 70 220 3.5 9.6 0.00 0.00 0.00 54 1018.2
20260507173034 69 202 5.2 10.4 0.00 0.00 0.00 52 1018.5
20260507171531 70 140 1.7 7.8 0.00 0.00 0.00 54 1019.0
20260507170028 68 190 3.5 7.0 0.00 0.00 0.00 56 1019.3
20260507164528 67 148 2.6 7.8 0.00 0.00 0.00 57 1019.6
20260507163031 67 175 3.5 7.8 0.00 0.00 0.00 58 1019.9
20260507161527 67 173 3.5 7.8 0.00 0.00 0.00 58 1019.8
20260507160033 67 166 2.6 7.0 0.00 0.00 0.00 58 1019.8
20260507154530 67 173 0.9 7.8 0.00 0.10 0.00 60 1019.9
20260507153031 65 211 2.6 7.0 0.00 0.10 0.00 62 1019.9
20260507151527 64 0 2.6 6.1 0.00 0.10 0.00 64 1020.1
20260507150029 63 156 2.6 6.1 0.00 0.10 0.00 65 1020.2
20260507144528 62 142 2.6 6.1 0.00 0.10 0.00 68 1020.3
20260507143053 60 0 0.9 5.2 0.00 0.10 0.00 71 1020.2
20260507141543 59 144 1.7 5.2 0.00 0.10 0.00 75 1020.4
20260507140028 58 153 0.9 4.3 0.00 0.10 0.00 81 1020.7
20260507134529 56 113 0.9 3.5 0.00 0.10 0.00 83 1020.7
20260507133034 55 0 0.0 2.6 0.00 0.10 0.00 85 1020.7
20260507131527 54 0 0.0 4.3 0.00 0.10 0.00 86 1020.6
20260507130038 54 84 0.0 2.6 0.00 0.10 0.00 86 1020.6
20260507124527 53 0 0.0 1.7 0.00 0.10 0.00 86 1020.3
20260507123026 52 0 0.0 0.9 0.00 0.10 0.00 85 1020.4
20260507121526 51 0 0.0 0.0 0.00 0.10 0.00 85 1020.2
20260507120029 51 0 0.0 0.0 0.00 0.10 0.00 84 1019.9
20260507114531 51 0 0.0 0.0 0.00 0.10 0.00 84 1019.9
20260507113028 51 0 0.0 0.0 0.00 0.10 0.00 84 1019.6
20260507111528 52 0 0.0 3.5 0.00 0.10 0.00 84 1019.6
20260507083028 55 188 1.7 6.1 0.00 0.10 0.00 79 1018.0
20260507081528 55 169 1.7 7.0 0.00 0.10 0.00 79 1017.8
20260507080028 55 141 2.6 8.7 0.00 0.10 0.00 80 1017.6
20260507074528 55 192 2.6 7.0 0.00 0.10 0.00 80 1017.5
20260507073031 56 172 3.5 7.8 0.00 0.10 0.00 79 1017.4
20260507071532 56 188 4.3 7.8 0.00 0.10 0.00 79 1017.6
20260507070032 56 172 3.5 6.1 0.00 0.10 0.00 79 1017.6
20260507064544 56 178 1.7 7.8 0.00 0.10 0.00 78 1017.4
20260507063030 56 187 2.6 5.2 0.00 0.10 0.00 78 1017.2
20260507061530 57 154 2.6 7.0 0.00 0.10 0.00 77 1017.3
20260507060028 57 176 3.5 7.8 0.00 0.10 0.00 76 1017.0
20260507054529 57 213 4.3 7.8 0.00 0.10 0.00 76 1017.2
20260507053028 58 204 3.5 7.8 0.00 0.10 0.00 75 1017.2
20260507051528 58 186 4.3 12.2 0.00 0.10 0.00 75 1017.3
20260507050038 58 202 3.5 7.8 0.00 0.10 0.00 76 1017.3
20260507044527 59 179 3.5 9.6 0.00 0.10 0.10 75 1017.2
20260507043027 59 160 5.2 10.4 0.00 0.10 0.10 75 1017.5
20260507041530 59 169 3.5 10.4 0.00 0.10 0.10 75 1017.7
20260507040029 59 139 5.2 9.6 0.00 0.10 0.10 75 1017.7
20260507034529 59 124 6.1 10.4 0.00 0.10 0.10 75 1017.7